Weather Roundup
Issued by NWS Chicago, IL

Home | Current Version | Previous Version | Text Only | Print | Product List | Glossary Off
Versions: 1 2 3 4 5 6 7 8 9 10 11 12 13 14 15 16 17 18 19 20 21 22 23 24 25 26 27 28 29 30 31 32 33 34 35 36 37 38 39 40 41 42 43 44 45 46 47 48 49 50

000
NZUS59 KLOT 051408
HRRLOT

CHICAGO AREA WEATHER ROUNDUP
NATIONAL WEATHER SERVICE CHICAGO/ROMEOVILLE IL
900 AM CDT SAT SEP 05 2015

NOTE: "FAIR" INDICATES FEW OR NO CLOUDS BELOW 12,000 FEET WITH NO
SIGNIFICANT WEATHER AND/OR OBSTRUCTIONS TO VISIBILITY.

* THESE STATIONS ARE NOT UNDER NWS QUALITY CONTROL. THEY ALSO MAY NOT
  REPORT WEATHER SUCH AS PRECIPITATION OR FOG.

ILZ005-006-012>014-019>023-051500-
NORTHEAST ILLINOIS

CITY           SKY/WX    TMP DP  RH WIND       PRES   REMARKS
OHARE          PTSUNNY   73  66  78 S9        30.09S
MIDWAY         PTSUNNY   74  66  76 SE3       30.10R THUNDER
AURORA         MOSUNNY   75  68  78 S7        30.11R
LANSING*       PTSUNNY   70  66  86 SE3       30.11S
JOLIET*        MOSUNNY   75  69  80 S7        30.11S
WAUKEGAN       PTSUNNY   70  70 100 CALM      30.09S FOG
DUPAGE AIRPORT MOSUNNY   75  67  76 S12       30.10S
WHEELING       NOT AVBL
KANKAKEE*      PTSUNNY   70  69  98 CALM      30.13S
MORRIS*        MOSUNNY   76  68  76 S8        30.10F
LEWIS AIRPORT* MOSUNNY   72  66  81 SW7       30.11S
NORTHERLY IS     N/A     73  63  70 S1          N/A
$$

WIZ051-052-058>065-066-070>072-051500-
SOUTHEAST WISCONSIN

CITY           SKY/WX    TMP DP  RH WIND       PRES   REMARKS
MILWAUKEE      CLOUDY    69  67  93 SE6       30.10R
KENOSHA*       CLOUDY    71  70  96 CALM      30.10S FOG
RACINE*        CLOUDY    71  67  87 S3        30.11S
BURLINGTON     CLOUDY    67  66  99 SE3       30.10S FOG
WAUKESHA       PTSUNNY   64  64 100 CALM      30.11F FOG
WEST BEND      CLOUDY    64  63  94 CALM      30.10S FOG
$$

INZ001>003-010>013-019-020-051500-
NORTHWEST INDIANA

CITY           SKY/WX    TMP DP  RH WIND       PRES   REMARKS
GARY*          CLOUDY    73  64  73 SE9       30.11S
MICHIGAN CITY* NOT AVBL
RENSSELAER*    NOT AVBL
VALPARAISO     PTSUNNY   72  66  81 W7        30.12F
$$

LMZ740>746-051500-
SOUTHERN LAKE MICHIGAN

STATION/POSITION TIME  SKY/WX   TEMP WIND        PRES    VSBY
                                AIR  DIR/SP/G
                 (UTC)          (F)  (DEG/KT/KT) (MB)    (MI)
HARRISON CRIB    1300            75  210/ 16/ 19   N/A
BURNHAM HARBOR   1400            74  230/  7/ 18   N/A
CALUMET HARBOR   1300            72  200/  7/  8   N/A
BURNS HARBOR     1300            73  190/ 10/ 12 1020.0R
MICHIGAN CITY    1300            72  180/ 10/ 12   N/A
$$

ABBREVIATIONS USED IN REMARKS
   TC - TEMPERATURE IN CELSIUS
  WCI - WIND CHILL INDEX
   HX - HEAT INDEX
  VSB - VISIBILITY
$$


USA.gov is the U.S. government's official web portal to all federal, state and local government web resources and services.